Temperature
6 4 4 4 5 5 5 5 5 5 5 4 4 4 4 3 3 2 2 3 3 4 5 5 5 5 6 6 6 6 6 6 6 6 6 6 6 6 6 7 7 7 7 7
4 4 4 5 5 5 5 4 4 5 4 4 3 3 3 3 2 2 2 2 3 4 4 5 5 5 5 5 5 5 5 5 5 6 6 6 6 6 6 6 6 6 6 6
4 4 5 5 4 4 4 4 4 4 4 3 3 4 3 3 2 2 2 2 3 3 3 4 4 5 5 5 5 5 5 5 5 5 5 5 5 5 5 6 6 6 6 6
3 4 4 4 4 4 4 4 4 4 3 3 3 3 3 2 2 1 1 2 2 3 3 3 4 4 4 4 4 4 4 4 5 5 5 5 5 5 5 5 5 5 5 5
3 3 4 4 4 4 4 4 3 3 3 2 2 2 3 2 2 2 1 2 2 2 3 3 3 4 4 4 4 4 4 4 4 4 4 4 4 4 4 4 4 5 5 5
3 3 3 3 4 4 3 3 3 2 2 2 2 2 2 1 2 2 1 2 2 2 2 2 3 3 3 3 3 3 3 4 3 3 4 4 4 4 4 4 4 4 4 4
3 3 3 3 3 3 3 2 2 2 2 2 1 2 2 1 1 1 1 1 2 2 2 2 2 3 2 3 3 3 3 3 3 3 3 3 3 3 3 3 3 3 4 4
2 2 2 2 3 2 2 2 2 3 2 1 1 1 2 1 1 1 1 1 1 1 1 1 2 2 2 2 2 2 2 2 2 3 3 3 3 3 3 3 3 3 3 3
1 2 2 2 2 2 2 1 1 1 0 0 1 0 0 0 -0 -0 0 0 0 0 1 1 1 1 1 2 2 2 2 2 2 2 2 2 2 2 2 2 2 3 3 3
1 1 1 1 2 2 1 1 0 1 1 1 1 -0 1 1 0 -1 -1 -1 -0 0 0 0 0 0 1 1 1 1 1 2 2 2 2 2 2 2 2 2 2 2 2 2
0 0 0 0 0 1 0 0 -0 -1 -0 0 0 1 0 0 -0 -1 -2 -1 -0 -0 -0 -0 -0 -0 0 0 1 1 1 1 1 1 1 1 1 1 1 1 1 2 2 2
-0 -1 -1 -0 -0 -0 -0 -1 -1 -0 -1 -2 -1 0 -0 -1 -2 -2 -2 -1 -1 -1 -1 -1 -1 -1 -1 -0 0 0 0 0 1 1 1 1 1 1 1 1 1 1 1 1
-1 -1 -0 0 -0 -1 -1 -2 -2 -2 -2 -2 -2 -0 -1 -2 -2 -2 -2 -1 -1 -1 -1 -1 -1 -1 -1 -1 -1 -0 -0 -0 -0 -0 0 0 0 0 1 1 1 1 1 1
-0 -1 -1 0 0 -1 -2 -2 -2 -2 -2 -3 -2 -1 -1 -2 -2 -3 -2 -2 -2 -2 -2 -2 -2 -2 -2 -2 -1 -1 -1 -1 -1 -1 -1 -0 -0 0 0 0 0 0 0 0
-1 -2 -2 -2 -2 -2 -2 -2 -3 -3 -3 -2 -2 -2 -2 -2 -3 -3 -2 -2 -2 -2 -2 -3 -3 -3 -2 -2 -2 -2 -2 -1 -1 -1 -1 -1 -1 -1 -0 -0 -0 -0 -0 -0
-3 -3 -3 -3 -2 -3 -3 -3 -3 -3 -3 -3 -3 -3 -3 -3 -3 -3 -3 -3 -3 -3 -3 -3 -3 -3 -3 -3 -3 -2 -2 -2 -2 -2 -1 -1 -1 -1 -1 -1 -1 -1 -1 -1
-4 -3 -3 -3 -3 -3 -3 -3 -3 -4 -5 -4 -3 -2 -4 -4 -4 -4 -4 -4 -4 -3 -3 -3 -3 -3 -3 -3 -3 -3 -3 -3 -2 -2 -2 -2 -2 -2 -2 -2 -2 -2 -2 -2
-4 -4 -4 -4 -4 -3 -2 -4 -4 -4 -5 -5 -5 -4 -5 -4 -4 -4 -4 -4 -4 -3 -4 -4 -4 -3 -3 -3 -3 -3 -3 -3 -3 -3 -3 -3 -3 -3 -3 -3 -2 -2 -2 -2
-5 -4 -4 -4 -4 -4 -3 -4 -5 -5 -4 -6 -6 -5 -5 -5 -5 -4 -4 -4 -4 -4 -4 -4 -4 -4 -4 -4 -4 -4 -4 -4 -3 -3 -3 -3 -3 -3 -3 -3 -3 -3 -3 -3
-5 -5 -5 -5 -4 -3 -2 -4 -5 -5 -4 -5 -6 -6 -6 -6 -5 -5 -4 -4 -4 -4 -5 -5 -5 -4 -4 -4 -5 -4 -4 -4 -4 -4 -4 -4 -4 -4 -4 -4 -4 -4 -4 -4
-5 -6 -5 -5 -5 -4 -4 -6 -5 -3 -3 -4 -5 -5 -6 -6 -5 -5 -5 -5 -5 -5 -5 -5 -5 -5 -5 -5 -5 -5 -5 -5 -5 -5 -5 -5 -5 -5 -5 -5 -5 -5 -4 -4
-5 -6 -6 -6 -5 -4 -6 -6 -5 -4 -4 -4 -4 -5 -5 -5 -5 -5 -5 -6 -6 -6 -6 -6 -5 -5 -5 -5 -5 -5 -5 -5 -5 -5 -5 -5 -5 -5 -5 -5 -5 -5 -5 -5
-6 -5 -6 -5 -4 -5 -6 -5 -5 -5 -5 -5 -5 -5 -6 -6 -6 -6 -6 -6 -6 -6 -6 -6 -6 -6 -6 -6 -6 -6 -6 -6 -6 -6 -6 -6 -6 -6 -6 -6 -6 -6 -6 -6
-7 -7 -7 -7 -7 -6 -6 -5 -5 -5 -5 -5 -5 -6 -6 -6 -6 -6 -6 -7 -7 -7 -7 -7 -7 -7 -7 -7 -7 -7 -7 -7 -7 -7 -7 -7 -7 -7 -7 -7 -7 -6 -6 -6
-7 -8 -8 -8 -8 -7 -6 -5 -5 -5 -6 -6 -6 -6 -6 -7 -7 -7 -7 -7 -7 -7 -7 -8 -8 -8 -8 -8 -8 -8 -8 -8 -7 -7 -7 -7 -8 -8 -7 -7 -7 -7 -7 -7
-8 -9 -8 -6 -7 -7 -6 -5 -6 -6 -6 -6 -6 -6 -7 -7 -7 -7 -7 -8 -8 -8 -8 -8 -8 -8 -8 -8 -8 -8 -8 -8 -8 -8 -8 -8 -8 -8 -8 -8 -8 -8 -8 -8
Wind_Speed
3 3 2 5 5 4 3 3 4 5 2 2 6 8 9 4 3 3 4 3 4 4 3 1 1 1 1 1 1 2 2 2 2 3 3 3 3 2 2 2 4 6 6 6
3 2 5 3 3 2 2 3 5 4 1 2 5 8 7 5 4 4 5 5 4 3 1 1 1 1 1 2 2 2 2 3 3 3 3 2 3 2 2 2 3 4 6 6
4 3 2 2 2 3 4 5 5 4 2 1 3 6 5 3 3 1 2 2 2 4 4 3 2 2 2 2 3 3 3 3 2 3 3 3 3 2 2 1 1 2 4 6
2 3 0 1 2 3 5 3 4 3 2 3 1 5 5 3 3 2 3 2 3 3 3 2 2 2 2 3 2 2 3 3 2 3 4 5 3 3 2 2 2 2 3 5
2 1 0 2 4 4 4 1 2 2 3 3 1 3 7 1 3 5 4 4 4 3 2 2 3 3 2 2 2 2 2 3 2 3 4 4 3 2 1 1 2 2 2 3
2 1 1 2 2 2 1 2 2 2 2 3 4 4 6 3 5 5 4 3 3 3 2 2 1 1 1 1 1 1 2 2 2 3 3 4 4 3 3 2 3 2 2 2
3 2 1 0 1 2 2 3 2 2 1 5 2 4 7 4 4 4 4 3 3 2 2 2 1 1 1 1 1 1 1 1 2 3 3 4 4 4 5 4 4 3 2 2
1 4 2 1 2 2 2 4 4 4 4 4 1 6 6 3 2 1 1 2 3 3 2 2 2 2 2 2 1 1 2 1 2 2 3 3 3 3 3 4 4 4 3 3
2 4 2 1 1 2 2 2 2 3 0 3 5 5 6 2 2 2 2 3 4 4 3 3 2 2 2 2 2 2 2 2 2 3 2 2 3 3 3 3 3 3 3 3
3 3 3 3 2 2 2 4 3 2 2 4 5 5 4 3 3 3 4 4 5 4 4 4 3 3 2 2 1 1 2 2 2 2 2 2 3 3 3 3 3 4 4 3
2 2 3 2 1 2 2 2 2 2 2 3 4 6 3 5 3 3 5 5 5 4 4 4 3 3 2 2 1 1 1 2 2 2 2 2 2 2 3 3 4 4 4 4
1 2 3 4 2 1 3 4 4 3 4 3 3 7 3 2 2 2 4 6 5 4 4 3 3 2 2 2 2 2 2 2 3 3 2 2 2 2 3 3 4 3 4 4
2 2 2 4 2 2 1 2 3 3 2 4 4 7 2 3 4 4 5 6 5 4 4 3 2 2 2 2 3 3 3 3 3 2 2 2 3 3 3 4 3 3 4 4
1 2 5 7 5 2 3 4 3 4 4 5 8 10 9 8 8 8 6 6 4 4 3 3 3 2 3 3 3 3 4 3 3 3 3 3 3 4 4 4 4 4 4 5
2 3 4 6 6 4 6 8 7 8 8 9 9 10 12 9 7 7 6 5 5 4 4 3 3 3 3 3 3 3 4 4 3 3 3 3 3 3 3 3 3 3 4 4
1 2 2 4 4 5 8 10 11 11 8 10 10 12 10 7 4 4 5 5 5 5 5 4 4 4 4 4 4 4 4 4 4 3 4 3 2 2 3 3 3 3 3 4
2 3 2 5 4 4 8 9 10 7 7 8 11 11 6 5 5 5 5 5 6 6 5 4 4 4 4 4 4 4 4 4 4 4 3 2 2 2 3 3 3 3 3 3
5 4 3 3 2 7 7 3 6 8 9 9 8 7 6 6 6 5 5 5 6 5 4 4 4 4 4 3 3 4 4 4 4 3 3 2 2 2 2 3 3 4 3 4
5 6 3 2 4 9 7 3 4 5 7 6 8 8 6 5 4 4 3 3 4 4 4 4 3 4 3 3 3 3 4 4 3 3 3 3 2 2 3 3 3 3 3 3
2 3 4 3 4 7 6 2 2 2 6 3 5 6 5 2 3 5 3 4 4 4 3 3 2 2 2 3 2 2 3 3 4 4 4 3 3 3 3 3 3 3 3 3
2 2 5 6 6 8 5 2 3 3 5 2 3 5 4 4 6 5 5 4 3 3 3 2 2 2 3 2 2 2 3 4 4 3 3 3 2 2 3 2 2 3 2 2
7 5 6 5 5 8 2 4 5 5 2 2 3 3 4 5 6 6 5 4 3 3 3 2 2 3 3 2 1 2 3 4 3 3 2 2 2 1 1 1 2 2 3 3
7 7 5 8 7 2 4 5 4 2 3 3 3 4 3 4 5 5 4 4 3 3 3 2 2 2 3 2 1 2 3 3 3 2 2 2 1 1 0 1 2 2 3 3
4 2 4 5 7 5 5 4 4 3 4 4 4 4 3 4 5 5 4 4 3 3 3 2 2 2 3 3 2 2 2 2 1 1 2 1 1 1 1 0 1 2 3 3
5 4 4 6 6 5 4 5 5 5 4 4 4 2 3 3 4 4 4 4 4 3 2 2 2 3 3 3 3 2 2 1 1 1 1 1 1 1 1 1 0 0 1 3
4 6 6 7 5 4 5 3 2 3 4 4 4 4 3 3 4 4 4 3 3 3 2 2 3 3 3 3 3 3 2 1 0 1 1 1 1 1 1 1 2 2 2 2
Wind_Direction
48 90 204 220 207 201 183 205 248 257 259 217 232 250 264 252 219 234 234 228 232 241 248 224 216 170 129 131 154 188 198 196 167 149 157 158 169 164 136 137 148 147 141 135
55 247 248 218 202 202 206 242 260 283 278 238 263 265 260 237 225 228 228 230 230 244 275 266 227 163 180 200 200 203 222 209 193 175 168 163 157 157 140 132 137 149 147 145
183 248 237 173 174 195 228 224 240 256 316 288 300 283 252 255 226 246 243 230 237 230 237 241 226 215 203 222 222 221 226 221 203 156 134 115 108 106 113 125 159 160 161 156
251 294 123 184 225 196 247 232 226 242 257 279 189 284 266 249 252 265 271 265 255 258 241 229 221 233 226 236 237 230 220 213 197 157 154 150 157 169 193 198 196 181 167 163
261 292 211 230 243 209 233 248 214 226 211 274 233 235 284 246 259 262 258 258 262 266 248 235 230 236 242 242 231 226 219 201 188 174 174 166 167 172 148 161 176 173 160 171
256 276 217 230 267 210 194 52 45 62 114 256 218 196 275 234 233 245 246 260 278 275 268 268 269 270 283 261 218 218 213 208 199 180 179 178 179 170 162 180 193 193 182 175
326 310 322 183 47 20 79 94 11 341 303 250 185 206 253 252 235 222 241 270 287 278 271 284 311 319 287 258 228 228 217 218 212 193 189 190 188 183 187 188 196 198 198 210
318 296 291 321 181 203 196 157 173 220 238 279 258 233 257 273 264 235 250 286 318 316 301 289 277 268 263 248 233 234 227 241 230 218 209 198 186 193 203 197 194 203 211 214
215 270 339 360 341 152 147 180 172 144 218 275 263 283 305 323 337 332 320 330 325 316 313 312 317 305 277 258 241 232 233 245 236 237 222 207 194 199 208 208 202 201 206 208
179 265 299 316 31 30 128 147 107 141 211 264 282 273 259 269 281 311 326 312 305 308 309 319 316 309 294 277 280 262 242 244 242 240 226 223 212 214 211 203 211 208 201 195
155 205 305 347 198 208 103 117 133 156 192 201 264 269 234 221 234 263 286 301 300 292 292 299 305 302 310 327 321 315 283 286 272 258 249 229 223 215 207 213 218 215 207 197
160 153 264 259 256 181 177 183 161 185 241 212 230 267 290 242 276 274 288 302 306 292 284 287 296 313 326 326 320 315 296 284 274 263 255 240 225 213 213 225 224 217 211 207
144 141 324 331 336 0 248 207 187 171 167 200 219 263 300 332 314 297 290 299 303 304 301 310 313 303 301 307 314 312 305 294 285 273 260 248 228 217 222 231 228 218 214 212
137 183 202 224 246 223 249 247 201 175 204 230 233 258 284 296 298 303 303 300 302 300 294 303 309 305 307 311 311 309 310 309 300 283 262 249 237 227 224 225 222 214 210 207
125 224 238 257 268 252 248 252 225 212 216 224 246 249 266 272 276 284 291 302 310 311 305 298 297 301 312 316 316 313 315 317 308 285 270 263 254 236 224 217 216 210 209 210
132 218 250 278 264 261 270 259 242 237 236 242 259 268 263 271 276 285 286 289 292 293 293 294 296 300 302 307 311 316 313 313 308 289 274 268 249 226 218 211 207 203 205 205
192 180 226 267 291 318 273 246 224 223 222 214 239 252 274 287 287 278 276 272 273 279 283 287 285 280 284 293 300 301 305 311 308 297 287 277 247 224 217 201 190 198 204 204
182 186 217 270 347 254 252 204 200 220 242 230 243 260 263 266 280 271 259 257 273 281 282 282 283 285 293 302 308 311 315 311 307 303 299 290 253 230 213 195 194 198 203 205
189 181 193 206 252 273 282 237 186 208 264 232 233 262 276 296 313 291 268 255 261 271 278 276 276 284 294 299 309 317 316 314 312 307 304 294 267 228 208 207 207 205 206 213
142 170 182 190 226 252 259 220 186 151 279 244 218 255 273 319 296 283 317 318 305 300 294 292 300 310 302 303 314 312 307 309 305 303 303 299 280 236 215 214 213 208 204 207
162 180 203 213 235 261 257 206 138 184 256 280 231 251 242 229 244 277 307 311 303 301 300 305 305 298 292 303 313 299 302 296 300 310 313 310 294 251 215 208 201 188 188 185
192 191 203 190 218 253 197 143 190 232 295 290 274 260 248 254 275 288 298 301 306 311 311 307 304 307 315 320 313 303 298 304 318 320 320 321 314 281 163 170 186 179 170 167
207 200 195 201 220 254 179 209 241 267 280 280 274 279 265 272 284 295 297 300 305 303 307 314 310 318 322 324 302 289 302 319 325 330 322 317 323 331 241 182 184 171 165 172
240 204 204 246 258 251 245 256 275 268 261 275 277 280 272 274 283 291 293 299 303 303 307 318 321 310 308 320 322 297 304 318 328 336 335 345 10 15 23 118 181 179 178 181
228 184 215 250 272 296 267 242 254 271 280 289 296 278 262 264 278 278 283 288 289 297 302 298 280 280 291 311 317 311 312 326 353 353 356 8 30 64 41 27 10 190 216 202
200 194 204 237 234 225 261 276 267 270 280 278 281 292 286 253 263 274 276 280 283 285 286 288 285 285 294 304 305 309 307 293 72 11 7 21 52 73 84 85 48 44 56 67
Height
1479 1484 1486 1485 1485 1485 1487 1489 1489 1487 1485 1487 1487 1484 1481 1481 1481 1480 1480 1481 1481 1481 1483 1484 1485 1486 1488 1489 1490 1492 1493 1494 1496 1497 1500 1502 1505 1508 1511 1513 1515 1518 1520 1522
1483 1485 1483 1483 1484 1485 1487 1489 1489 1486 1485 1487 1486 1483 1479 1478 1478 1477 1477 1478 1478 1479 1480 1481 1483 1484 1485 1486 1487 1489 1490 1491 1492 1494 1496 1499 1502 1505 1508 1511 1512 1514 1517 1519
1483 1484 1481 1483 1484 1486 1487 1489 1488 1488 1487 1486 1487 1481 1478 1476 1476 1476 1475 1476 1476 1477 1477 1478 1480 1480 1482 1482 1484 1485 1487 1488 1489 1491 1494 1496 1498 1501 1504 1506 1509 1511 1513 1516
1484 1482 1482 1483 1484 1485 1486 1484 1485 1486 1489 1490 1489 1486 1476 1476 1475 1475 1474 1474 1474 1474 1475 1476 1476 1477 1478 1479 1481 1482 1483 1485 1486 1488 1490 1491 1493 1495 1499 1502 1505 1508 1510 1512
1484 1483 1483 1483 1483 1484 1484 1483 1485 1486 1489 1492 1491 1491 1478 1477 1475 1473 1472 1472 1471 1472 1472 1472 1473 1474 1475 1477 1478 1479 1480 1482 1483 1484 1486 1488 1490 1493 1496 1499 1502 1504 1506 1509
1484 1483 1483 1483 1482 1483 1483 1485 1486 1489 1490 1491 1488 1491 1479 1477 1472 1470 1470 1470 1470 1470 1470 1470 1471 1472 1473 1474 1475 1476 1477 1478 1480 1481 1483 1486 1487 1489 1492 1495 1497 1500 1502 1505
1485 1484 1483 1482 1483 1483 1484 1488 1493 1492 1495 1488 1487 1487 1478 1471 1469 1468 1468 1468 1468 1468 1468 1468 1468 1469 1470 1471 1471 1473 1474 1475 1477 1478 1480 1482 1484 1486 1488 1490 1493 1495 1497 1500
1490 1488 1484 1482 1483 1485 1486 1487 1492 1493 1492 1490 1489 1485 1474 1469 1468 1467 1468 1468 1467 1466 1466 1466 1466 1466 1467 1468 1468 1469 1470 1472 1474 1475 1476 1478 1481 1483 1485 1487 1489 1491 1493 1496
1491 1488 1484 1482 1482 1483 1485 1488 1489 1495 1498 1497 1488 1483 1474 1469 1468 1467 1467 1466 1466 1466 1465 1464 1464 1465 1465 1465 1465 1466 1467 1469 1470 1471 1473 1475 1477 1479 1481 1483 1486 1488 1490 1492
1490 1492 1486 1485 1483 1484 1485 1487 1492 1494 1493 1490 1487 1486 1476 1469 1468 1468 1467 1466 1465 1464 1464 1462 1462 1462 1462 1462 1463 1464 1465 1465 1467 1468 1470 1471 1473 1475 1477 1479 1481 1483 1486 1488
1490 1493 1490 1487 1487 1487 1488 1489 1490 1494 1493 1493 1491 1480 1469 1467 1466 1467 1466 1465 1464 1463 1462 1461 1461 1461 1460 1459 1460 1460 1461 1462 1463 1465 1466 1468 1469 1471 1473 1475 1477 1479 1482 1484
1490 1493 1493 1489 1487 1487 1487 1488 1491 1492 1493 1497 1495 1482 1466 1465 1465 1465 1465 1464 1463 1461 1460 1459 1458 1458 1457 1457 1457 1458 1458 1458 1459 1461 1462 1463 1465 1467 1469 1471 1473 1475 1477 1479
1490 1493 1493 1488 1490 1490 1489 1489 1489 1491 1494 1497 1493 1479 1467 1466 1465 1464 1463 1462 1461 1459 1458 1457 1456 1456 1455 1455 1455 1455 1455 1455 1456 1457 1458 1459 1460 1462 1464 1467 1469 1470 1472 1474
1487 1491 1491 1488 1483 1486 1489 1488 1489 1490 1492 1492 1486 1475 1467 1465 1464 1462 1461 1460 1459 1458 1457 1455 1454 1453 1452 1452 1452 1452 1452 1452 1452 1453 1454 1454 1456 1457 1460 1462 1464 1466 1468 1470
1487 1490 1490 1488 1485 1486 1486 1484 1485 1485 1483 1482 1475 1473 1464 1463 1462 1460 1459 1458 1456 1455 1454 1453 1452 1451 1450 1450 1449 1449 1449 1449 1449 1449 1450 1450 1451 1453 1455 1457 1459 1461 1463 1465
1488 1490 1490 1488 1484 1485 1483 1478 1479 1479 1478 1477 1473 1468 1460 1460 1459 1458 1456 1455 1454 1453 1452 1451 1450 1449 1448 1447 1447 1446 1446 1446 1446 1446 1446 1446 1447 1449 1450 1452 1454 1456 1458 1460
1488 1490 1488 1486 1485 1483 1480 1472 1473 1474 1472 1472 1468 1461 1458 1457 1456 1455 1454 1453 1452 1451 1450 1449 1448 1447 1446 1446 1445 1443 1443 1442 1442 1442 1442 1443 1444 1445 1446 1448 1449 1451 1453 1455
1485 1487 1488 1488 1488 1485 1468 1466 1466 1467 1465 1465 1461 1458 1457 1455 1454 1453 1452 1451 1449 1449 1448 1446 1445 1445 1444 1443 1442 1441 1440 1439 1439 1439 1439 1439 1440 1441 1442 1443 1444 1446 1449 1450
1480 1483 1487 1489 1487 1477 1466 1463 1464 1465 1461 1458 1458 1455 1454 1453 1451 1449 1448 1448 1447 1446 1445 1444 1443 1442 1441 1440 1439 1438 1437 1437 1436 1436 1436 1436 1437 1437 1438 1439 1441 1442 1444 1446
1480 1481 1485 1487 1483 1474 1460 1461 1460 1463 1460 1453 1453 1452 1452 1452 1453 1448 1446 1445 1444 1443 1442 1441 1440 1439 1438 1437 1437 1436 1435 1434 1433 1433 1432 1433 1433 1434 1435 1436 1437 1439 1441 1442
1481 1483 1484 1484 1481 1469 1460 1459 1460 1463 1454 1451 1450 1450 1450 1450 1449 1446 1443 1442 1441 1440 1439 1438 1437 1436 1436 1435 1434 1433 1432 1431 1431 1430 1430 1430 1430 1430 1431 1433 1434 1435 1437 1439
1476 1479 1481 1480 1478 1467 1458 1458 1459 1453 1450 1449 1448 1447 1447 1446 1444 1442 1441 1439 1438 1437 1436 1435 1434 1433 1433 1432 1431 1429 1429 1429 1428 1428 1427 1427 1427 1428 1428 1430 1431 1432 1434 1435
1470 1468 1467 1467 1461 1455 1453 1452 1452 1450 1449 1447 1446 1445 1445 1443 1441 1439 1438 1436 1435 1434 1433 1432 1431 1430 1430 1429 1428 1427 1427 1426 1425 1425 1424 1424 1424 1425 1426 1427 1428 1429 1431 1432
1464 1463 1463 1462 1454 1451 1450 1449 1449 1448 1446 1445 1444 1443 1441 1440 1438 1437 1435 1434 1433 1432 1431 1430 1429 1428 1427 1427 1426 1425 1424 1423 1423 1422 1422 1422 1422 1422 1423 1424 1425 1426 1427 1428
1458 1460 1460 1457 1451 1449 1446 1446 1445 1444 1443 1442 1441 1440 1439 1437 1436 1435 1433 1431 1431 1429 1428 1427 1426 1425 1425 1424 1423 1423 1422 1421 1420 1420 1420 1420 1420 1421 1421 1422 1423 1424 1425 1427
1453 1455 1455 1450 1447 1447 1444 1443 1442 1441 1440 1439 1438 1436 1436 1435 1433 1432 1430 1429 1428 1427 1426 1425 1424 1424 1423 1422 1421 1421 1420 1419 1419 1418 1418 1418 1418 1418 1419 1420 1421 1423 1424 1425